COSMOS 1275 DEB, 42189

Orbit data source: Space-Track

COSMOS 1275 DEB, 42189 is space debris in LEO originally from a launch on Thu, 04 Jun 1981 UTC launched from the Plesetsk Missile And Space Complex (PKMTR). Debris objects in space refer to the collection of defunct objects orbiting the Earth. Examples of debris include non-operational satellites, rocket bodies, and fragments generated from explosions, collisions, or faulty payload assembly.

Loading next visibility...
Identifier
42189, 1981-053TD
Orbit
LEO
Last TLE update
4 days ago
Origin
Manufacturer
Unknown
Mission
Spacecraft
Bus & Motor
Unknown
Mass
Unknown
Launch date (UTC)
1981-06-04 (44 years ago)
Launch vehicle
Unknown
Launch site
Plesetsk Missile And Space Complex (PKMTR)
Object type
Payload
Rocket body
Debris
Shape & HBR
Unknown
Radar Cross Section
Small (<0.1 m²)

Expand to show TLE details & history

TLE from 4 days ago
0 COSMOS 1275 DEB
1 42189U 81053TD  25180.33889509  .00000652  00000-0  67478-3 0  9990
2 42189  83.0188 189.8162 0119542 306.6877  52.3338 13.71415412560608
Epoch: 2025-06-29T08:08Z
TLE epoch observation values (Epoch: 2025-06-29T08:08:00.535Z)
Latitude
-0.00008°
Longitude
150.14948°
Altitude
944.193 km
Speed
7.406 km/s
True Right ascension
12h 39m 15s
True Declination
0° 00' 00"
Sunlit
Object was in daylight at epoch
Visualization orbit readout
Latitude
-0.5288°
Longitude
147.26843°
Altitude
957.459 km
Speed
7.393 km/s
Apparent Right ascension
09h 46m 02s
Apparent Declination
-31° 29' 13"
Sunlit
Object is in daylight
Visualization observer readout
Local Sidereal Time
16:41:25
Azimuth
251.96° W
Elevation
-29.449°
Doppler factor
1
Orbital elements
Apogee altitude
1,079.744 km
Perigee altitude
903.544 km
Semi-major axis
7,369.781 km
Eccentricity
0.01195
Inclination
83.0188°
RAAN
189.8162°
Arg. of periapsis
306.6877°
True anomaly
Unknown
Mean anomaly
52.3338°
Eccentric anomaly
Unknown
Mean motion
3.43053 °/min
Orbital period
104.94 mins
BSTAR
0.00067478
Loading maneuver chart data...
Loading SW <> Apogee altitude chart data...
Loading historical data...
Loading historical data...
Loading historical data...
Loading historical data...
Loading historical data...
Loading historical data...
Loading historical data...

COSMOS 1275 DEB Visibility forecast

Observer location: undefined°, undefined°

Span
Click to sort rows by Start time (UTC) header in descending order
Start Az.
Max El. time (UTC)
Max El. Az.
Max El.
End time (UTC)
End Az.
9 mins2025-07-03 10:46:59.642Z24.956° NE2025-07-03 10:50:59.642Z63.859° ENE19.933°2025-07-03 10:55:59.642Z114.628° SE
11 mins2025-07-03 12:32:59.642Z342.96° N2025-07-03 12:37:59.642Z255.533° W41.816°2025-07-03 12:43:59.642Z188.613° SSW
10 mins2025-07-04 00:18:59.642Z154.605° SSE2025-07-04 00:22:59.642Z100.723° ESE35.698°2025-07-04 00:28:59.642Z20.656° NNE
8 mins2025-07-04 02:05:59.642Z245.142° WSW2025-07-04 02:08:59.642Z281.996° WNW24.248°2025-07-04 02:13:59.642Z339.437° N
|